| time (UTC) | temp F | wind direction | speed MPH | gust MPH | rain 1hr in | rain 24hr in | rain mn in | humidity % | barometer mb |
| 20260509194538 | 55 | 240 | 6.0 | 16.0 | 0.00 | 0.10 | 0.03 | 86 | 1013.0 |
| 20260509193042 | 56 | 209 | 4.0 | 11.0 | 0.00 | 0.10 | 0.03 | 86 | 1013.1 |
| 20260509191539 | 56 | 180 | 4.0 | 10.0 | 0.00 | 0.10 | 0.03 | 85 | 1013.4 |
| 20260509190040 | 56 | 175 | 4.0 | 12.0 | 0.00 | 0.10 | 0.03 | 84 | 1013.3 |
| 20260509184545 | 57 | 195 | 5.0 | 15.0 | 0.00 | 0.10 | 0.03 | 82 | 1013.4 |
| 20260509183047 | 58 | 191 | 3.0 | 8.0 | 0.00 | 0.10 | 0.03 | 81 | 1013.4 |
| 20260509181545 | 58 | 155 | 4.0 | 10.0 | 0.00 | 0.10 | 0.03 | 79 | 1013.3 |
| 20260509180109 | 59 | 253 | 5.0 | 13.0 | 0.00 | 0.10 | 0.03 | 77 | 1013.6 |
| 20260509174539 | 59 | 191 | 4.0 | 11.0 | 0.00 | 0.10 | 0.03 | 80 | 1013.7 |
| 20260509173043 | 59 | 143 | 3.0 | 13.0 | 0.00 | 0.10 | 0.03 | 79 | 1013.8 |
| 20260509171552 | 58 | 228 | 3.0 | 9.0 | 0.00 | 0.10 | 0.03 | 81 | 1013.8 |
| 20260509170048 | 56 | 178 | 2.0 | 8.0 | 0.00 | 0.10 | 0.03 | 83 | 1014.0 |
| 20260509164543 | 56 | 190 | 4.0 | 13.0 | 0.00 | 0.10 | 0.03 | 80 | 1014.1 |
| 20260509163043 | 56 | 180 | 4.0 | 11.0 | 0.00 | 0.10 | 0.03 | 83 | 1014.1 |
| 20260509161544 | 56 | 202 | 3.0 | 9.0 | 0.00 | 0.10 | 0.03 | 83 | 1014.2 |
| 20260509160047 | 56 | 200 | 3.0 | 9.0 | 0.00 | 0.10 | 0.03 | 82 | 1014.2 |
| 20260509154604 | 56 | 182 | 3.0 | 9.0 | 0.00 | 0.10 | 0.03 | 80 | 1014.4 |
| 20260509153051 | 56 | 157 | 3.0 | 10.0 | 0.00 | 0.10 | 0.03 | 81 | 1014.5 |
| 20260509151551 | 55 | 134 | 3.0 | 12.0 | 0.00 | 0.10 | 0.03 | 82 | 1014.5 |
| 20260509150043 | 55 | 157 | 5.0 | 12.0 | 0.01 | 0.10 | 0.03 | 81 | 1014.4 |
| 20260509144538 | 55 | 187 | 5.0 | 12.0 | 0.01 | 0.10 | 0.03 | 82 | 1014.3 |
| 20260509143100 | 55 | 173 | 4.0 | 11.0 | 0.01 | 0.10 | 0.03 | 83 | 1014.5 |
| 20260509141544 | 55 | 189 | 4.0 | 10.0 | 0.01 | 0.10 | 0.03 | 83 | 1014.5 |
| 20260509140045 | 55 | 136 | 2.0 | 7.0 | 0.00 | 0.09 | 0.02 | 86 | 1014.2 |
| 20260509134536 | 54 | 0 | 1.0 | 4.0 | 0.00 | 0.09 | 0.02 | 88 | 1014.5 |
| 20260509133057 | 52 | 173 | 1.0 | 7.0 | 0.00 | 0.09 | 0.02 | 89 | 1014.8 |
| 20260509131543 | 52 | 159 | 2.0 | 7.0 | 0.00 | 0.09 | 0.02 | 91 | 1015.0 |
| 20260509130042 | 52 | 164 | 3.0 | 10.0 | 0.00 | 0.09 | 0.02 | 91 | 1015.1 |
| 20260509124540 | 52 | 175 | 2.0 | 7.0 | 0.00 | 0.09 | 0.02 | 93 | 1015.3 |
| 20260509123039 | 51 | 163 | 2.0 | 9.0 | 0.00 | 0.09 | 0.02 | 93 | 1015.2 |
| 20260509121546 | 51 | 162 | 2.0 | 8.0 | 0.00 | 0.09 | 0.02 | 95 | 1015.4 |
| 20260509120040 | 51 | 162 | 1.0 | 6.0 | 0.00 | 0.09 | 0.02 | 96 | 1015.2 |
| 20260509114537 | 50 | 155 | 0.0 | 3.0 | 0.00 | 0.09 | 0.02 | 96 | 1015.2 |
| 20260509113039 | 50 | 0 | 0.0 | 2.0 | 0.00 | 0.09 | 0.02 | 96 | 1014.8 |
| 20260509111543 | 49 | 0 | 0.0 | 3.0 | 0.01 | 0.09 | 0.02 | 96 | 1014.9 |
| 20260509110037 | 49 | 0 | 0.0 | 5.0 | 0.02 | 0.09 | 0.02 | 96 | 1015.2 |
| 20260509104559 | 49 | 0 | 0.0 | 4.0 | 0.02 | 0.09 | 0.02 | 95 | 1015.2 |
| 20260509103041 | 49 | 0 | 0.0 | 5.0 | 0.02 | 0.09 | 0.02 | 95 | 1015.1 |
| 20260509101539 | 49 | 0 | 0.0 | 4.0 | 0.01 | 0.08 | 0.01 | 94 | 1015.1 |
| 20260509100037 | 49 | 144 | 0.0 | 3.0 | 0.00 | 0.07 | 0.00 | 93 | 1015.1 |
| 20260509094546 | 49 | 199 | 0.0 | 4.0 | 0.00 | 0.07 | 0.00 | 93 | 1015.3 |
| 20260509093037 | 49 | 0 | 0.0 | 6.0 | 0.00 | 0.07 | 0.00 | 93 | 1014.9 |
| 20260509091544 | 49 | 163 | 1.0 | 4.0 | 0.00 | 0.07 | 0.00 | 94 | 1014.6 |
| 20260509090050 | 49 | 0 | 1.0 | 6.0 | 0.00 | 0.07 | 0.00 | 94 | 1014.4 |
| 20260509084538 | 47 | 149 | 2.0 | 5.0 | 0.00 | 0.07 | 0.00 | 93 | 1014.3 |
| 20260509083037 | 47 | 0 | 0.0 | 0.0 | 0.00 | 0.07 | 0.00 | 92 | 1014.0 |
| 20260509081551 | 47 | 0 | 0.0 | 0.0 | 0.00 | 0.07 | 0.00 | 93 | 1014.1 |
| 20260509080044 | 47 | 0 | 0.0 | 0.0 | 0.00 | 0.07 | 0.00 | 93 | 1014.0 |
| 20260509074540 | 47 | 0 | 0.0 | 3.0 | 0.00 | 0.07 | 0.00 | 93 | 1014.1 |
| 20260509073045 | 47 | 0 | 0.0 | 2.0 | 0.00 | 0.07 | 0.00 | 93 | 1014.1 |
| 20260509071547 | 47 | 0 | 0.0 | 0.0 | 0.00 | 0.07 | 0.00 | 93 | 1014.3 |
| 20260509070043 | 48 | 0 | 0.0 | 0.0 | 0.00 | 0.07 | 0.00 | 93 | 1014.4 |
| 20260509064538 | 48 | 0 | 0.0 | 1.0 | 0.00 | 0.07 | 0.00 | 93 | 1014.5 |
| 20260509063102 | 48 | 0 | 0.0 | 1.0 | 0.00 | 0.07 | 0.00 | 93 | 1014.6 |
| 20260509061608 | 47 | 0 | 0.0 | 2.0 | 0.00 | 0.07 | 0.00 | 94 | 1014.7 |
| 20260509060053 | 47 | 0 | 0.0 | 1.0 | 0.00 | 0.07 | 0.00 | 94 | 1014.7 |
| 20260509054538 | 47 | 0 | 0.0 | 0.0 | 0.00 | 0.07 | 0.00 | 94 | 1014.8 |
| 20260509053037 | 46 | 0 | 0.0 | 0.0 | 0.00 | 0.07 | 0.00 | 93 | 1014.7 |
| 20260509051543 | 46 | 0 | 0.0 | 1.0 | 0.00 | 0.07 | 0.00 | 93 | 1014.6 |
| 20260509050046 | 46 | 0 | 0.0 | 1.0 | 0.00 | 0.07 | 0.00 | 92 | 1014.7 |
| 20260509044541 | 46 | 0 | 0.0 | 1.0 | 0.00 | 0.07 | 0.00 | 92 | 1014.6 |
| 20260509043038 | 45 | 0 | 0.0 | 0.0 | 0.00 | 0.07 | 0.00 | 91 | 1014.6 |
| 20260509041537 | 45 | 0 | 0.0 | 1.0 | 0.00 | 0.07 | 0.00 | 90 | 1014.5 |
| 20260509040038 | 45 | 0 | 0.0 | 1.0 | 0.00 | 0.07 | 0.00 | 88 | 1014.2 |
| 20260509034537 | 46 | 0 | 0.0 | 1.0 | 0.00 | 0.07 | 0.07 | 87 | 1014.3 |
| 20260509033044 | 46 | 0 | 0.0 | 1.0 | 0.00 | 0.07 | 0.07 | 87 | 1014.1 |
| 20260509031542 | 47 | 0 | 0.0 | 3.0 | 0.00 | 0.07 | 0.07 | 88 | 1014.2 |
| 20260509030041 | 47 | 234 | 0.0 | 4.0 | 0.00 | 0.07 | 0.07 | 88 | 1014.2 |
| 20260509024539 | 46 | 241 | 1.0 | 5.0 | 0.00 | 0.07 | 0.07 | 86 | 1014.2 |
| 20260509023036 | 46 | 263 | 0.0 | 2.0 | 0.00 | 0.07 | 0.07 | 81 | 1014.1 |
| 20260509021544 | 47 | 0 | 0.0 | 2.0 | 0.00 | 0.07 | 0.07 | 78 | 1014.1 |
| 20260509020050 | 48 | 0 | 0.0 | 1.0 | 0.00 | 0.07 | 0.07 | 75 | 1013.8 |
| 20260509014546 | 49 | 0 | 0.0 | 0.0 | 0.00 | 0.07 | 0.07 | 72 | 1013.6 |
| 20260509013040 | 50 | 0 | 0.0 | 2.0 | 0.00 | 0.07 | 0.07 | 68 | 1013.5 |
| 20260509011537 | 51 | 264 | 0.0 | 2.0 | 0.00 | 0.07 | 0.07 | 65 | 1013.2 |
| 20260509010037 | 52 | 0 | 0.0 | 3.0 | 0.00 | 0.07 | 0.07 | 63 | 1013.0 |
| 20260509004544 | 53 | 0 | 0.0 | 5.0 | 0.00 | 0.07 | 0.07 | 61 | 1012.5 |
| 20260509003043 | 53 | 299 | 1.0 | 7.0 | 0.00 | 0.07 | 0.07 | 59 | 1012.1 |
| 20260509001537 | 53 | 289 | 2.0 | 8.0 | 0.00 | 0.07 | 0.07 | 59 | 1011.9 |
| 20260509000038 | 54 | 347 | 2.0 | 10.0 | 0.00 | 0.07 | 0.07 | 61 | 1011.7 |
| 20260508234550 | 54 | 288 | 1.0 | 9.0 | 0.00 | 0.07 | 0.07 | 63 | 1011.3 |
| 20260508233047 | 55 | 0 | 0.0 | 2.0 | 0.00 | 0.07 | 0.07 | 70 | 1011.0 |
| 20260508231545 | 55 | 0 | 1.0 | 4.0 | 0.00 | 0.07 | 0.07 | 67 | 1010.8 |
| 20260508230045 | 56 | 267 | 0.0 | 4.0 | 0.00 | 0.07 | 0.07 | 66 | 1010.7 |
| 20260508224543 | 56 | 288 | 2.0 | 9.0 | 0.00 | 0.07 | 0.07 | 65 | 1010.6 |
| 20260508223045 | 56 | 259 | 3.0 | 9.0 | 0.00 | 0.07 | 0.07 | 67 | 1010.4 |
| 20260508221542 | 57 | 283 | 2.0 | 10.0 | 0.00 | 0.07 | 0.07 | 65 | 1010.3 |
| 20260508220039 | 56 | 217 | 5.0 | 10.0 | 0.00 | 0.07 | 0.07 | 66 | 1010.4 |
| 20260508214537 | 55 | 214 | 3.0 | 10.0 | 0.00 | 0.07 | 0.07 | 68 | 1010.6 |
| 20260508213045 | 56 | 244 | 3.0 | 12.0 | 0.00 | 0.07 | 0.07 | 68 | 1010.6 |
| 20260508211539 | 55 | 206 | 4.0 | 14.0 | 0.00 | 0.07 | 0.07 | 74 | 1010.6 |
| 20260508210039 | 54 | 264 | 2.0 | 7.0 | 0.00 | 0.07 | 0.07 | 73 | 1010.4 |
| 20260508204544 | 56 | 0 | 2.0 | 5.0 | 0.00 | 0.07 | 0.07 | 70 | 1010.1 |
| 20260508203044 | 57 | 307 | 2.0 | 9.0 | 0.01 | 0.07 | 0.07 | 70 | 1010.2 |
| 20260508201547 | 54 | 360 | 1.0 | 8.0 | 0.06 | 0.07 | 0.07 | 85 | 1010.3 |
| 20260508200038 | 51 | 278 | 1.0 | 7.0 | 0.07 | 0.07 | 0.07 | 87 | 1010.4 |